Time,TemperatureF,DewpointF,PressureIn,WindDirection,WindDirectionDegrees,WindSpeedMPH,WindSpeedGustMPH,Humidity,HourlyPrecipIn,Conditions,Clouds,dailyrainin,SolarRadiationWatts/m^2,SoftwareType,DateUTC
2016-12-05 00:02:00,40.0,38.4,29.95,South,172,0.0,-999.0,94,0.00,,,0.00,0,WeatherHawk,2016-12-05 06:02:00,
2016-12-05 00:07:00,40.0,38.1,29.95,WSW,240,0.0,-999.0,93,0.00,,,0.00,0,WeatherHawk,2016-12-05 06:07:00,
2016-12-05 00:12:00,40.0,38.1,29.95,SW,221,0.0,-999.0,93,0.00,,,0.00,0,WeatherHawk,2016-12-05 06:12:00,
2016-12-05 00:17:00,40.0,38.1,29.95,WSW,239,0.0,-999.0,93,0.00,,,0.00,0,WeatherHawk,2016-12-05 06:17:00,
2016-12-05 00:22:00,40.0,37.9,29.95,WSW,253,0.0,-999.0,92,0.00,,,0.00,0,WeatherHawk,2016-12-05 06:22:00,
2016-12-05 00:27:00,40.1,37.9,29.95,WSW,240,0.0,-999.0,92,0.00,,,0.00,0,WeatherHawk,2016-12-05 06:27:00,
2016-12-05 00:32:00,40.1,37.9,29.95,WSW,247,0.0,-999.0,92,0.00,,,0.00,0,WeatherHawk,2016-12-05 06:32:00,
2016-12-05 00:37:00,40.1,38.0,29.96,SW,236,0.0,-999.0,92,0.00,,,0.00,0,WeatherHawk,2016-12-05 06:37:00,
2016-12-05 00:42:00,40.1,38.0,29.96,West,261,0.0,-999.0,92,0.00,,,0.00,0,WeatherHawk,2016-12-05 06:42:00,
2016-12-05 00:47:00,40.2,38.0,29.96,SSE,153,0.0,-999.0,92,0.00,,,0.00,0,WeatherHawk,2016-12-05 06:47:00,
2016-12-05 00:52:00,40.2,38.0,29.96,SSW,204,1.0,-999.0,92,0.00,,,0.00,0,WeatherHawk,2016-12-05 06:52:00,
2016-12-05 00:57:00,40.2,38.0,29.96,WSW,251,0.0,-999.0,92,0.00,,,0.00,0,WeatherHawk,2016-12-05 06:57:00,
2016-12-05 01:02:00,40.2,38.1,29.95,NNW,332,1.0,-999.0,92,0.00,,,0.00,0,WeatherHawk,2016-12-05 07:02:00,
2016-12-05 01:12:00,40.2,37.8,29.96,WSW,258,0.0,-999.0,91,0.00,,,0.00,0,WeatherHawk,2016-12-05 07:12:00,
2016-12-05 01:17:00,40.3,38.2,29.96,WSW,241,0.0,-999.0,92,0.00,,,0.00,0,WeatherHawk,2016-12-05 07:17:00,
2016-12-05 01:22:00,40.3,37.9,29.96,WNW,297,0.0,-999.0,91,0.00,,,0.00,0,WeatherHawk,2016-12-05 07:22:00,
2016-12-05 01:27:00,40.3,37.9,29.96,WSW,250,0.0,-999.0,91,0.00,,,0.00,0,WeatherHawk,2016-12-05 07:27:00,
2016-12-05 01:32:00,40.3,37.9,29.96,SSW,206,0.0,-999.0,91,0.00,,,0.00,0,WeatherHawk,2016-12-05 07:32:00,
2016-12-05 01:37:00,40.3,37.9,29.96,WSW,249,0.0,-999.0,91,0.00,,,0.00,0,WeatherHawk,2016-12-05 07:37:00,
2016-12-05 01:42:00,40.3,38.2,29.96,SSW,210,0.0,-999.0,92,0.00,,,0.00,0,WeatherHawk,2016-12-05 07:42:00,
2016-12-05 01:47:00,40.4,38.2,29.96,SW,225,0.0,-999.0,92,0.00,,,0.00,0,WeatherHawk,2016-12-05 07:47:00,
2016-12-05 01:52:00,40.4,38.0,29.96,WNW,303,0.0,-999.0,91,0.00,,,0.00,0,WeatherHawk,2016-12-05 07:52:00,
2016-12-05 01:57:00,40.4,38.0,29.96,SSW,207,0.0,-999.0,91,0.00,,,0.00,0,WeatherHawk,2016-12-05 07:57:00,
2016-12-05 02:02:00,40.4,37.7,29.96,NW,310,0.0,-999.0,90,0.00,,,0.00,0,WeatherHawk,2016-12-05 08:02:00,
2016-12-05 02:07:00,40.4,37.7,29.96,WSW,248,0.0,-999.0,90,0.00,,,0.00,0,WeatherHawk,2016-12-05 08:07:00,
2016-12-05 02:12:00,40.4,37.7,29.97,SW,236,0.0,-999.0,90,0.00,,,0.00,0,WeatherHawk,2016-12-05 08:12:00,
2016-12-05 02:17:00,40.4,37.7,29.96,WSW,254,1.0,-999.0,90,0.00,,,0.00,0,WeatherHawk,2016-12-05 08:17:00,
2016-12-05 02:22:00,40.4,37.4,29.97,WSW,241,0.0,-999.0,89,0.00,,,0.00,0,WeatherHawk,2016-12-05 08:22:00,
2016-12-05 02:27:00,40.4,37.4,29.97,WSW,248,0.0,-999.0,89,0.00,,,0.00,0,WeatherHawk,2016-12-05 08:27:00,
2016-12-05 02:32:00,40.4,37.4,29.97,West,269,0.0,-999.0,89,0.00,,,0.00,0,WeatherHawk,2016-12-05 08:32:00,
2016-12-05 02:37:00,40.4,37.4,29.97,West,268,0.0,-999.0,89,0.00,,,0.00,0,WeatherHawk,2016-12-05 08:37:00,
2016-12-05 02:42:00,40.4,37.7,29.97,SSW,207,0.0,-999.0,90,0.00,,,0.00,0,WeatherHawk,2016-12-05 08:42:00,
2016-12-05 02:47:00,40.4,37.7,29.97,WSW,238,0.0,-999.0,90,0.00,,,0.00,1,WeatherHawk,2016-12-05 08:47:00,
2016-12-05 02:52:00,40.4,37.7,29.96,SSW,210,0.0,-999.0,90,0.00,,,0.00,0,WeatherHawk,2016-12-05 08:52:00,
2016-12-05 02:57:00,40.4,37.7,29.97,SSW,211,0.0,-999.0,90,0.00,,,0.00,1,WeatherHawk,2016-12-05 08:57:00,
2016-12-05 03:02:00,40.4,38.0,29.97,WNW,296,0.0,-999.0,91,0.00,,,0.00,0,WeatherHawk,2016-12-05 09:02:00,
2016-12-05 03:07:00,40.4,38.0,29.97,West,267,0.0,-999.0,91,0.00,,,0.00,0,WeatherHawk,2016-12-05 09:07:00,
2016-12-05 03:12:00,40.5,38.0,29.97,West,265,0.0,-999.0,91,0.00,,,0.00,0,WeatherHawk,2016-12-05 09:12:00,
2016-12-05 03:17:00,40.4,38.0,29.97,WSW,256,0.0,-999.0,91,0.00,,,0.00,0,WeatherHawk,2016-12-05 09:17:00,
2016-12-05 03:22:00,40.5,38.1,29.97,West,267,0.0,-999.0,91,0.00,,,0.00,0,WeatherHawk,2016-12-05 09:22:00,
2016-12-05 03:27:00,40.5,38.0,29.97,West,274,0.0,-999.0,91,0.00,,,0.00,0,WeatherHawk,2016-12-05 09:27:00,
2016-12-05 03:32:00,40.5,38.3,29.97,West,273,0.0,-999.0,92,0.00,,,0.00,0,WeatherHawk,2016-12-05 09:32:00,
2016-12-05 03:37:00,40.5,38.4,29.97,SW,231,0.0,-999.0,92,0.00,,,0.00,1,WeatherHawk,2016-12-05 09:37:00,
2016-12-05 03:42:00,40.5,38.4,29.97,WSW,241,0.0,-999.0,92,0.00,,,0.00,0,WeatherHawk,2016-12-05 09:42:00,
2016-12-05 03:47:00,40.5,38.4,29.97,WSW,251,0.0,-999.0,92,0.00,,,0.00,0,WeatherHawk,2016-12-05 09:47:00,
2016-12-05 03:52:00,40.6,38.7,29.97,West,274,0.0,-999.0,93,0.00,,,0.00,0,WeatherHawk,2016-12-05 09:52:00,
2016-12-05 03:57:00,40.6,38.7,29.97,West,259,0.0,-999.0,93,0.00,,,0.00,0,WeatherHawk,2016-12-05 09:57:00,
2016-12-05 04:02:00,40.6,38.7,29.98,SSW,203,0.0,-999.0,93,0.00,,,0.00,0,WeatherHawk,2016-12-05 10:02:00,
2016-12-05 04:07:00,40.6,38.7,29.98,SW,219,0.0,-999.0,93,0.00,,,0.00,0,WeatherHawk,2016-12-05 10:07:00,
2016-12-05 04:12:00,40.6,39.0,29.98,SW,222,0.0,-999.0,94,0.00,,,0.00,0,WeatherHawk,2016-12-05 10:12:00,
2016-12-05 04:17:00,40.6,39.0,29.98,SSW,212,0.0,-999.0,94,0.00,,,0.00,0,WeatherHawk,2016-12-05 10:17:00,
2016-12-05 04:22:00,40.6,39.0,29.98,SW,218,0.0,-999.0,94,0.00,,,0.00,0,WeatherHawk,2016-12-05 10:22:00,
2016-12-05 04:27:00,40.6,39.0,29.98,SW,216,0.0,-999.0,94,0.00,,,0.00,0,WeatherHawk,2016-12-05 10:27:00,
2016-12-05 04:32:00,40.7,39.3,29.98,SW,228,0.0,-999.0,95,0.00,,,0.00,0,WeatherHawk,2016-12-05 10:32:00,
2016-12-05 04:37:00,40.7,39.4,29.98,WSW,253,0.0,-999.0,95,0.00,,,0.00,0,WeatherHawk,2016-12-05 10:37:00,
2016-12-05 04:42:00,40.7,39.4,29.98,WSW,251,0.0,-999.0,95,0.00,,,0.00,1,WeatherHawk,2016-12-05 10:42:00,
2016-12-05 04:47:00,40.7,39.4,29.98,SW,226,0.0,-999.0,95,0.00,,,0.00,0,WeatherHawk,2016-12-05 10:47:00,
2016-12-05 04:52:00,40.7,39.7,29.98,SSW,211,0.0,-999.0,96,0.00,,,0.00,1,WeatherHawk,2016-12-05 10:52:00,
2016-12-05 04:57:00,40.7,39.7,29.98,WSW,253,0.0,-999.0,96,0.00,,,0.00,0,WeatherHawk,2016-12-05 10:57:00,